[[{"header":{"parameterUnit":"m.s-1","parameterCategory":1,"la1":30.2991,"la2":30.254,"lo1":-89.0895,"lo2":-89.0444,"dy":0.0017,"dx":0.0017,"nx":28,"ny":28,"refTime":"2025-08-19T09:00:00:Z","depth":0,"parameterNumber":2,"parameterNumberName":"U-component_of_WINDS"},"data":[0,0,0,0,0,0,0,0,0,0,0,0,0,0,0,0,0,0,0,0,0,0,0,0,0,0,0,0,0,0,0,0,0,0,0,0,0,0,0,0,0,0,0,0,0,0,0,0,0,0,0,0,0,0,0,0,0,0,0.9783,0.9783,0,0.9722,0.9721,0.9721,0.9693,0.9693,0.9693,0.9693,0.9628,0.9626,0.9625,0,0,0,0,0,0,0,0,0,0,0,0,0,0.9875,0.9873,0.9784,0.9783,0.9782,0.9722,0.9721,0.9721,0.9693,0.9693,0.9693,0.9693,0.9629,0.9627,0.9624,0,0,0,0,0,0,0,0,0,0,0,0,0,0.9827,0.9873,0.9784,0.9761,0.9759,0.9722,0.9721,0.972,0.9693,0.9693,0.9693,0.9693,0.9629,0.9627,0.9624,0.9605,0,0,0.9616,0.9615,0,0,0,0,0,0,0,0,0.9829,0.9823,0.9765,0.9763,0.976,0.9715,0.973,0.9682,0.9693,0.9718,0.9693,0.9693,0.9657,0.9652,0.964,0.9602,0.9599,0.9616,0.9614,0.9613,0.9612,0,0,0,0,0,0,0,0.9833,0.9826,0.9759,0.9764,0.9761,0.9753,0.9747,0.972,0.9687,0.9716,0.9714,0.9707,0.9655,0.9643,0.9638,0.9598,0.9616,0.9613,0.9612,0.9611,0.9542,0.9542,0,0,0,0,0,0,0.984,0.9829,0.9761,0.9757,0.9796,0.9752,0.9744,0.9729,0.9688,0.9681,0.9707,0.9706,0.9647,0.9642,0.9636,0.9611,0.9613,0.961,0.9609,0.9542,0.9542,0.9542,0,0,0,0,0,0,0.9842,0.9834,0.9764,0.9792,0.9783,0.975,0.9734,0.9728,0.9716,0.9681,0.9675,0.97,0.9647,0.964,0.9613,0.9608,0.9609,0.9607,0.9542,0.9542,0.9542,0.9561,0,0,0,0,0,0,0.9845,0.9835,0.9828,0.9793,0.9781,0.9742,0.9733,0.9727,0.9711,0.9709,0.9673,0.9667,0.9647,0.9617,0.9611,0.9605,0.9605,0.9543,0.9542,0.9542,0.9561,0.9561,0.9562,0,0,0,0,0,0.9848,0.9835,0.9828,0.982,0.9772,0.9742,0.9736,0.9713,0.9711,0.9703,0.9681,0.9668,0.961,0.9615,0.9607,0.96,0.9543,0.9542,0.9542,0.956,0.9561,0.9562,0,0,0,0,0,0,0.987,0.983,0.9821,0.9797,0.9773,0.9738,0.9727,0.9715,0.9691,0.969,0.9663,0.9655,0.963,0.9613,0.9619,0.958,0.9575,0.9573,0.9592,0.9593,0.9594,0.9598,0.9602,0,0,0,0,0,0.9872,0.9852,0.9818,0.98,0.9788,0.976,0.9746,0.9731,0.9705,0.9695,0.9671,0.9645,0.9621,0.9606,0.9582,0.9558,0.955,0.955,0.955,0.9551,0.955,0.9536,0.9535,0.954,0.954,0.954,0,0,0.9876,0.9852,0.9841,0.9803,0.9783,0.9763,0.9752,0.973,0.9714,0.9691,0.9665,0.9646,0.9616,0.9591,0.9579,0.9576,0.9546,0.9551,0.9552,0.9549,0.9535,0.9535,0.9534,0.954,0.954,0.954,0,0,0.9872,0.9852,0.9835,0.9815,0.9785,0.9767,0.9763,0.9729,0.9716,0.9689,0.9672,0.9652,0.9612,0.9591,0.9576,0.9565,0.9552,0.9558,0.9562,0.9548,0.9548,0.9548,0.9544,0.9543,0.9557,0.9557,0.9557,0,0.988,0.9849,0.9827,0.9806,0.9791,0.977,0.9752,0.9734,0.9697,0.9687,0.9684,0.9633,0.9611,0.9581,0.9579,0.9567,0.9561,0.9562,0.955,0.9549,0.9548,0.9544,0.9543,0.9558,0.9558,0.9558,0.9557,0,0.9861,0.9839,0.9829,0.9795,0.9778,0.9759,0.9733,0.9718,0.9705,0.9687,0.966,0.9634,0.9604,0.9596,0.9582,0.9564,0.9563,0.9556,0.955,0.9549,0.9545,0.9543,0.9559,0.9559,0.9558,0.9558,0,0,0.9868,0.9823,0.982,0.9804,0.977,0.9753,0.9733,0.9705,0.9693,0.9669,0.9651,0.9618,0.9611,0.9593,0.9577,0.9566,0.9559,0.956,0.9559,0.956,0.9537,0.9543,0.9541,0.9551,0.9551,0.955,0.954,0,0.9859,0.9823,0.9803,0.9775,0.9755,0.9735,0.9718,0.9695,0.9677,0.9657,0.9637,0.9614,0.9607,0.9596,0.9584,0.9563,0.9554,0.9563,0.9534,0.9533,0.9541,0.9539,0.9544,0.9536,0.9538,0.9538,0.9537,0,0.9844,0.9821,0.9792,0.976,0.9751,0.9736,0.9709,0.969,0.9664,0.9652,0.9633,0.9617,0.9595,0.9592,0.9561,0.9568,0.9554,0.9542,0.9541,0.9537,0.9535,0.9534,0.9532,0.9531,0.9535,0.9535,0.9535,0,0.9852,0.9814,0.9791,0.9779,0.9742,0.9732,0.9716,0.969,0.9674,0.9651,0.964,0.9614,0.96,0.958,0.9557,0.9558,0.9529,0.9524,0.9518,0.9518,0.9511,0.9512,0.9507,0.9504,0.9504,0.9504,0.9504,0,0.9844,0.9827,0.9794,0.978,0.976,0.9737,0.9718,0.97,0.9677,0.9659,0.9641,0.9624,0.9596,0.9576,0.9558,0.9535,0.9529,0.9518,0.9513,0.9519,0.9521,0.951,0.9509,0.9504,0.9504,0.9504,0.9504,0,0.9849,0.9827,0.9801,0.9769,0.976,0.9747,0.9719,0.9704,0.9687,0.9664,0.9657,0.9629,0.9604,0.958,0.9547,0.9535,0.9512,0.9506,0.9521,0.9518,0.9513,0.9514,0.95,0.9497,0.9497,0.9497,0.9497,0,0.9845,0.9832,0.9798,0.9785,0.977,0.9749,0.9734,0.9711,0.9695,0.9665,0.9654,0.9628,0.9606,0.9568,0.9544,0.9518,0.9511,0.9508,0.9507,0.9514,0.9511,0.9512,0.951,0.9509,0.9509,0.9509,0.9509,0,0.9841,0.9831,0.981,0.9785,0.9767,0.9746,0.9725,0.9715,0.9688,0.9672,0.9647,0.963,0.9596,0.9571,0.9543,0.9526,0.9513,0.951,0.9507,0.9512,0.9522,0.9516,0.9522,0.951,0.951,0.951,0.951,0.951,0.9841,0.9828,0.9802,0.978,0.9761,0.9742,0.9727,0.9708,0.9687,0.9658,0.9646,0.962,0.9595,0.9556,0.9539,0.9519,0.9516,0.9512,0.9511,0.951,0.9511,0.9526,0.9514,0.9514,0.9514,0.9514,0.9514,0,0.9835,0.9818,0.9797,0.9768,0.975,0.9741,0.9717,0.9702,0.9681,0.9658,0.9637,0.9609,0.9584,0.9559,0.9533,0.9522,0.9515,0.9516,0.9516,0.9512,0.9515,0.952,0.9521,0.9521,0.9521,0.9521,0.9521,0.9521,0.983,0.9807,0.9794,0.9762,0.9745,0.9721,0.9708,0.969,0.9672,0.9642,0.9621,0.9605,0.9582,0.9554,0.9531,0.9524,0.9515,0.9518,0.9509,0.9512,0.9512,0.9511,0.9516,0.9516,0.9516,0.9507,0.9507,0.9507]},{"header":{"parameterUnit":"m.s-1","parameterCategory":1,"la1":30.2991,"la2":30.254,"lo1":-89.0895,"lo2":-89.0444,"dy":0.0017,"dx":0.0017,"nx":28,"ny":28,"refTime":"2025-08-19T09:00:00:Z","depth":0,"parameterNumber":3,"parameterNumberName":"V-component_of_WINDS"},"data":[0,0,0,0,0,0,0,0,0,0,0,0,0,0,0,0,0,0,0,0,0,0,0,0,0,0,0,0,0,0,0,0,0,0,0,0,0,0,0,0,0,0,0,0,0,0,0,0,0,0,0,0,0,0,0,0,0,0,-2.71,-2.7101,0,-2.7192,-2.7193,-2.7194,-2.7207,-2.7206,-2.7205,-2.7204,-2.7294,-2.7297,-2.73,0,0,0,0,0,0,0,0,0,0,0,0,0,-2.6933,-2.6936,-2.71,-2.7102,-2.7103,-2.7191,-2.7193,-2.7194,-2.7207,-2.7206,-2.7205,-2.7204,-2.7292,-2.7296,-2.73,0,0,0,0,0,0,0,0,0,0,0,0,0,-2.7013,-2.6937,-2.71,-2.712,-2.7123,-2.7191,-2.7193,-2.7194,-2.7207,-2.7206,-2.7205,-2.7203,-2.7291,-2.7296,-2.7301,-2.7354,0,0,-2.7315,-2.7317,0,0,0,0,0,0,0,0,-2.7009,-2.7019,-2.7116,-2.7119,-2.7122,-2.7187,-2.7167,-2.7248,-2.7207,-2.7175,-2.7204,-2.7203,-2.7259,-2.7266,-2.7286,-2.7359,-2.7363,-2.7315,-2.7318,-2.732,-2.7322,0,0,0,0,0,0,0,-2.7003,-2.7015,-2.7136,-2.7117,-2.7121,-2.7123,-2.7133,-2.7182,-2.7222,-2.7178,-2.7179,-2.719,-2.726,-2.7281,-2.7288,-2.7364,-2.7315,-2.7319,-2.7322,-2.7324,-2.7484,-2.7486,0,0,0,0,0,0,-2.6995,-2.7011,-2.7133,-2.7139,-2.7061,-2.7127,-2.7138,-2.7167,-2.7222,-2.7229,-2.7191,-2.719,-2.7274,-2.7282,-2.7291,-2.7357,-2.732,-2.7325,-2.7327,-2.7483,-2.7485,-2.7486,0,0,0,0,0,0,-2.6991,-2.7005,-2.713,-2.7075,-2.7091,-2.7131,-2.7163,-2.7169,-2.7191,-2.7232,-2.7239,-2.7205,-2.7273,-2.7284,-2.7339,-2.736,-2.7327,-2.7331,-2.7481,-2.7483,-2.7485,-2.749,0,0,0,0,0,0,-2.6986,-2.7004,-2.7026,-2.7076,-2.7094,-2.7177,-2.7165,-2.7172,-2.7199,-2.7199,-2.7247,-2.7254,-2.7273,-2.7332,-2.7343,-2.7366,-2.7335,-2.7479,-2.7482,-2.7485,-2.7488,-2.7492,-2.7495,0,0,0,0,0,-2.698,-2.7023,-2.7027,-2.7042,-2.7123,-2.7178,-2.7189,-2.7211,-2.7201,-2.7223,-2.7249,-2.7252,-2.7356,-2.7337,-2.735,-2.7375,-2.7478,-2.7481,-2.7485,-2.7486,-2.7491,-2.7495,0,0,0,0,0,0,-2.6973,-2.703,-2.7035,-2.7096,-2.7132,-2.7181,-2.7209,-2.7216,-2.7255,-2.7253,-2.7278,-2.7288,-2.7341,-2.7364,-2.7341,-2.743,-2.7416,-2.7422,-2.7413,-2.7418,-2.7422,-2.7414,-2.7339,0,0,0,0,0,-2.6979,-2.7021,-2.7068,-2.7117,-2.7135,-2.7169,-2.7194,-2.7208,-2.7246,-2.7261,-2.7292,-2.7328,-2.7368,-2.7394,-2.7434,-2.7492,-2.7501,-2.7515,-2.7519,-2.7522,-2.7526,-2.7557,-2.7563,-2.7497,-2.7497,-2.7497,0,0,-2.6991,-2.7027,-2.7052,-2.7116,-2.7146,-2.7188,-2.7181,-2.7226,-2.7256,-2.7267,-2.7321,-2.7344,-2.7386,-2.7442,-2.7468,-2.7462,-2.7547,-2.7526,-2.7528,-2.7531,-2.7561,-2.7567,-2.7573,-2.7499,-2.7498,-2.7498,0,0,-2.7034,-2.7066,-2.711,-2.714,-2.7187,-2.7209,-2.7219,-2.7267,-2.7283,-2.7337,-2.7346,-2.7382,-2.7452,-2.7481,-2.7505,-2.7558,-2.7562,-2.757,-2.7589,-2.7619,-2.7624,-2.7629,-2.7647,-2.7653,-2.7575,-2.7575,-2.7575,0,-2.7043,-2.7107,-2.7131,-2.7176,-2.7203,-2.7216,-2.726,-2.7288,-2.7344,-2.7362,-2.7355,-2.7443,-2.7472,-2.7534,-2.7547,-2.7566,-2.7578,-2.7565,-2.7622,-2.7627,-2.7631,-2.7649,-2.7656,-2.7576,-2.7576,-2.7576,-2.7576,0,-2.7115,-2.7159,-2.7189,-2.7244,-2.7274,-2.7318,-2.7348,-2.7375,-2.7387,-2.7409,-2.7463,-2.7498,-2.7545,-2.7561,-2.7572,-2.7625,-2.762,-2.7617,-2.7604,-2.7638,-2.7655,-2.7662,-2.7577,-2.7576,-2.7576,-2.7576,0,0,-2.7156,-2.7224,-2.7234,-2.7259,-2.7311,-2.7345,-2.7388,-2.7435,-2.7458,-2.7496,-2.7532,-2.7591,-2.7589,-2.7616,-2.763,-2.7656,-2.7695,-2.765,-2.7652,-2.7656,-2.7753,-2.7754,-2.7762,-2.7698,-2.77,-2.7701,-2.775,0,-2.7204,-2.7284,-2.7307,-2.7373,-2.7413,-2.7426,-2.7464,-2.7499,-2.7521,-2.7557,-2.7581,-2.7622,-2.7616,-2.7632,-2.7659,-2.7685,-2.7714,-2.7681,-2.773,-2.7732,-2.7719,-2.7771,-2.7772,-2.7817,-2.7756,-2.7757,-2.7758,0,-2.7271,-2.7311,-2.7382,-2.7428,-2.7445,-2.7479,-2.7524,-2.7559,-2.7598,-2.7612,-2.7642,-2.7654,-2.7698,-2.7683,-2.7744,-2.7721,-2.7742,-2.7757,-2.7759,-2.7764,-2.7747,-2.7776,-2.7831,-2.7838,-2.7769,-2.7768,-2.7767,0,-2.7292,-2.7364,-2.7416,-2.7437,-2.7492,-2.7515,-2.7539,-2.7577,-2.7603,-2.7642,-2.7659,-2.7701,-2.7724,-2.7756,-2.7779,-2.7766,-2.7837,-2.7824,-2.7848,-2.7847,-2.7862,-2.786,-2.792,-2.7877,-2.7877,-2.7877,-2.7877,0,-2.7343,-2.7386,-2.7426,-2.7458,-2.7505,-2.7531,-2.7576,-2.76,-2.7634,-2.7669,-2.7683,-2.7715,-2.7744,-2.7779,-2.7797,-2.7843,-2.7854,-2.7865,-2.7869,-2.7864,-2.7862,-2.7877,-2.7874,-2.7879,-2.7878,-2.7878,-2.7877,0,-2.7375,-2.7404,-2.7461,-2.7509,-2.7521,-2.7554,-2.7594,-2.7624,-2.7647,-2.7691,-2.7703,-2.7738,-2.778,-2.7806,-2.786,-2.7872,-2.7923,-2.7926,-2.791,-2.7912,-2.7934,-2.7931,-2.8005,-2.8016,-2.7966,-2.7966,-2.7967,0,-2.7405,-2.7438,-2.749,-2.7515,-2.7539,-2.758,-2.7607,-2.7633,-2.7661,-2.7707,-2.7732,-2.7776,-2.7812,-2.7879,-2.7908,-2.7949,-2.7953,-2.7976,-2.7959,-2.7952,-2.7952,-2.7949,-2.7952,-2.7978,-2.7979,-2.7979,-2.7979,0,-2.7455,-2.7468,-2.7508,-2.7552,-2.7585,-2.7621,-2.7657,-2.7676,-2.7708,-2.7738,-2.7782,-2.7811,-2.7866,-2.7909,-2.7952,-2.7975,-2.7982,-2.7985,-2.7992,-2.7986,-2.7975,-2.7981,-2.7917,-2.7983,-2.7982,-2.7982,-2.7982,-2.7982,-2.7487,-2.7517,-2.7557,-2.7601,-2.763,-2.7663,-2.7694,-2.7721,-2.7759,-2.7807,-2.7819,-2.7865,-2.7903,-2.7962,-2.7985,-2.8021,-2.8017,-2.8028,-2.8031,-2.8033,-2.8033,-2.7971,-2.8029,-2.8029,-2.8029,-2.8029,-2.8029,0,-2.7537,-2.7564,-2.7604,-2.7654,-2.7687,-2.7693,-2.7732,-2.776,-2.7801,-2.7836,-2.7871,-2.7922,-2.7963,-2.7996,-2.8038,-2.806,-2.8064,-2.807,-2.8068,-2.8073,-2.8035,-2.8023,-2.8066,-2.8066,-2.8066,-2.8066,-2.8066,-2.8066,-2.7567,-2.7617,-2.7634,-2.7699,-2.7725,-2.7772,-2.7794,-2.7824,-2.7852,-2.7908,-2.7943,-2.7964,-2.7997,-2.8042,-2.808,-2.8088,-2.8102,-2.8107,-2.8116,-2.808,-2.8076,-2.8072,-2.8061,-2.8111,-2.8111,-2.8151,-2.8151,-2.8152]}]]